Hourly Data Report for September 05, 2017

All times are specified in Local Standard Time (LST). Add 1 hour to adjust for Daylight Saving Time where and when it is observed.

BAS CARAQUET
NEW BRUNSWICK

47°48'08.000" N
64°50'00.000" W
5.00 m
8100467
71598
WXS

Download Data

Hourly Data (September 2017)
Hourly Data Report for September 5, 2017
Temp Definition
°C
Dew Point Temp Definition
°C
Rel Hum Definition
%
Wind Dir Definition
10's deg

Wind Spd Definition
km/h
Visibility Definition
km
Stn Press Definition
kPa
Hmdx Definition


Wind Chill Definition


Weather Definition


TIME
00:00 15.8 12.0 79 17 12   100.39     LegendNANA
01:00 16.3 12.0 76 19 4   100.33     LegendNANA
02:00 17.1 12.2 73 20 14   100.31     LegendNANA
03:00 16.8 12.3 75 19 13   100.30     LegendNANA
04:00 17.0 12.6 75 19 15   100.28     LegendNANA
05:00 16.6 12.6 77 19 15   100.23     LegendNANA
06:00 16.8 12.8 77 20 16   100.29     LegendNANA
07:00 17.1 13.1 77 19 15   100.25     LegendNANA
08:00 17.8 13.8 77 19 14   100.22     LegendNANA
09:00 19.3 14.2 73 19 20   100.18     LegendNANA
10:00 21.0 14.5 67 21 24   100.21 25   LegendNANA
11:00 20.9 14.5 67 20 16   100.20 25   LegendNANA
12:00 22.9 15.5 63 21 17   100.27 27   LegendNANA
13:00 25.3 15.8 56 25 20   100.27 30   LegendNANA
14:00 24.6 15.5 57 23 18   100.35 29   LegendNANA
15:00 24.6 15.9 59 22 15   100.39 29   LegendNANA
16:00 24.3 15.9 59 21 14   100.45 29   LegendNANA
17:00 23.5 16.4 64 20 9   100.54 28   LegendNANA
18:00 22.8 16.5 67 20 9   100.60 28   LegendNANA
19:00 22.3 16.1 68 22 10   100.65 27   LegendNANA
20:00 21.9 16.0 69 18 6   100.73 27   LegendNANA
21:00 21.0 16.5 76 22 6   100.83 26   LegendNANA
22:00 19.9 16.2 79 24 10   100.83     LegendNANA
23:00 18.8 16.5 87 19 4   100.84     LegendNANA

Notes on Data Quality.

Legend

  • E = Estimated
  • M = Missing
  • NA = Not Available
  • ‡ = Partner data that is not subject to review by the National Climate Archives
Date modified: